When you browse on this site, cookies collect data to enhance your experience and personalize the content and advertising you see.
Visit our Privacy Policy to learn more. By continuing to use the site, you agree to this use of cookies and data.

Previsão horária em Mislata

Hoje, 14 Agosto, Sexta-feira

Tempo Temperatura Precipitação Vento Pressão Humidade
00:00 +26°C° 0 mm 1 m/s 758 mmHg 70%
01:00 +26°C° 0 mm 1 m/s 758 mmHg 69%
02:00 +26°C° 0 mm 1 m/s 757 mmHg 69%
03:00 +25°C° 0 mm 1 m/s 757 mmHg 68%
04:00 +25°C° 0 mm 1 m/s 757 mmHg 68%
05:00 +26°C° 0 mm 1 m/s 757 mmHg 68%
06:00 +26°C° 0 mm 1 m/s 758 mmHg 68%
07:00 +27°C° 0 mm 2 m/s 758 mmHg 64%
08:00 +29°C° 0 mm 3 m/s 758 mmHg 60%
09:00 +32°C° 0 mm 4 m/s 757 mmHg 57%
10:00 +33°C° 0 mm 4 m/s 757 mmHg 53%
11:00 +34°C° 0 mm 4 m/s 757 mmHg 48%
12:00 +35°C° 0 mm 4 m/s 757 mmHg 44%
13:00 +35°C° 0 mm 5 m/s 757 mmHg 45%
14:00 +35°C° 0 mm 5 m/s 756 mmHg 45%
15:00 +35°C° 0 mm 5 m/s 756 mmHg 45%
16:00 +34°C° 0 mm 5 m/s 756 mmHg 52%
17:00 +32°C° 0 mm 4 m/s 756 mmHg 59%
18:00 +30°C° 0 mm 3 m/s 756 mmHg 66%
19:00 +29°C° 0 mm 3 m/s 756 mmHg 72%
20:00 +28°C° 0 mm 2 m/s 757 mmHg 78%
21:00 +26°C° 0 mm 1 m/s 757 mmHg 84%
22:00 +26°C° 0 mm 1 m/s 757 mmHg 86%
23:00 +26°C° 0 mm 1 m/s 757 mmHg 87%

Amanhã, 15 Agosto, Sábado

Tempo Temperatura Precipitação Vento Pressão Humidade
00:00 +25°C° 0 mm 1 m/s 757 mmHg 88%
01:00 +25°C° 0 mm 1 m/s 757 mmHg 89%
02:00 +25°C° 0 mm 1 m/s 756 mmHg 89%
03:00 +24°C° 0 mm 1 m/s 756 mmHg 90%
04:00 +24°C° 0 mm 1 m/s 756 mmHg 88%
05:00 +25°C° 0 mm 1 m/s 756 mmHg 87%
06:00 +25°C° 0 mm 1 m/s 756 mmHg 85%
07:00 +27°C° 0 mm 1 m/s 756 mmHg 74%
08:00 +29°C° 0 mm 1 m/s 756 mmHg 64%
09:00 +31°C° 0 mm 1 m/s 756 mmHg 53%
10:00 +32°C° 0 mm 2 m/s 756 mmHg 46%
11:00 +35°C° 0 mm 2 m/s 756 mmHg 39%
12:00 +37°C° 0 mm 3 m/s 756 mmHg 33%
13:00 +37°C° 0 mm 4 m/s 755 mmHg 34%
14:00 +37°C° 0 mm 4 m/s 755 mmHg 35%
15:00 +37°C° 0 mm 5 m/s 754 mmHg 36%
16:00 +36°C° 0 mm 4 m/s 754 mmHg 41%
17:00 +34°C° 0 mm 4 m/s 754 mmHg 46%
18:00 +33°C° 0 mm 3 m/s 753 mmHg 50%
19:00 +30°C° 0 mm 2 m/s 754 mmHg 58%
20:00 +28°C° 0 mm 2 m/s 755 mmHg 65%
21:00 +27°C° 0 mm 1 m/s 755 mmHg 73%
22:00 +26°C° 0 mm 1 m/s 755 mmHg 73%
23:00 +26°C° 0 mm 1 m/s 755 mmHg 72%

Depois de amanhã, 16 Agosto, Domingo

Tempo Temperatura Precipitação Vento Pressão Humidade
00:00 +26°C° 0 mm 1 m/s 755 mmHg 72%
01:00 +26°C° 0 mm 1 m/s 754 mmHg 65%
02:00 +26°C° 0 mm 1 m/s 754 mmHg 58%
03:00 +26°C° 0 mm 2 m/s 754 mmHg 51%
04:00 +26°C° 0 mm 2 m/s 754 mmHg 45%
05:00 +26°C° 0 mm 2 m/s 754 mmHg 39%
06:00 +26°C° 0 mm 2 m/s 754 mmHg 33%
07:00 +28°C° 0 mm 2 m/s 754 mmHg 31%
08:00 +30°C° 0 mm 2 m/s 755 mmHg 29%
09:00 +34°C° 0 mm 2 m/s 755 mmHg 27%
10:00 +35°C° 0 mm 3 m/s 755 mmHg 26%
11:00 +36°C° 0 mm 3 m/s 755 mmHg 26%
12:00 +38°C° 0 mm 4 m/s 755 mmHg 25%
13:00 +37°C° 0 mm 4 m/s 754 mmHg 29%
14:00 +37°C° 0 mm 4 m/s 754 mmHg 32%
15:00 +37°C° 0 mm 4 m/s 754 mmHg 36%
16:00 +35°C° 0 mm 4 m/s 754 mmHg 44%
17:00 +33°C° 0 mm 3 m/s 753 mmHg 52%
18:00 +31°C° 0 mm 3 m/s 753 mmHg 60%
19:00 +29°C° 0 mm 3 m/s 754 mmHg 69%
20:00 +27°C° 0 mm 2 m/s 755 mmHg 78%
21:00 +26°C° 0 mm 1 m/s 755 mmHg 87%
22:00 +25°C° 0 mm 1 m/s 755 mmHg 84%
23:00 +25°C° 0 mm 1 m/s 755 mmHg 82%

17 Agosto, Segunda-feira

Tempo Temperatura Precipitação Vento Pressão Humidade
00:00 +23°C° 0 mm 0 m/s 755 mmHg 79%
01:00 +25°C° 0 mm 1 m/s 755 mmHg 74%
02:00 +24°C° 0 mm 1 m/s 755 mmHg 69%
03:00 +24°C° 0 mm 2 m/s 755 mmHg 64%
04:00 +25°C° 0 mm 2 m/s 755 mmHg 55%
05:00 +25°C° 0 mm 2 m/s 756 mmHg 47%
06:00 +25°C° 0 mm 2 m/s 756 mmHg 38%
07:00 +27°C° 0 mm 2 m/s 756 mmHg 39%
08:00 +29°C° 0 mm 2 m/s 756 mmHg 39%
09:00 +31°C° 0 mm 3 m/s 757 mmHg 40%
10:00 +33°C° 0 mm 3 m/s 757 mmHg 39%
11:00 +34°C° 0 mm 4 m/s 757 mmHg 38%
12:00 +36°C° 0 mm 4 m/s 756 mmHg 37%
13:00 +35°C° 0 mm 5 m/s 756 mmHg 40%
14:00 +35°C° 0 mm 5 m/s 756 mmHg 43%
15:00 +35°C° 0 mm 5 m/s 755 mmHg 46%
16:00 +33°C° 0 mm 4 m/s 755 mmHg 51%
17:00 +32°C° 0 mm 4 m/s 755 mmHg 57%
18:00 +30°C° 0 mm 3 m/s 755 mmHg 63%
19:00 +28°C° 0 mm 2 m/s 756 mmHg 72%
20:00 +27°C° 0 mm 1 m/s 757 mmHg 80%
21:00 +25°C° 0 mm 1 m/s 758 mmHg 89%
22:00 +25°C° 0 mm 1 m/s 758 mmHg 89%
23:00 +25°C° 0 mm 1 m/s 758 mmHg 89%

18 Agosto, Terça-feira

Tempo Temperatura Precipitação Vento Pressão Humidade
00:00 +25°C° 0 mm 1 m/s 758 mmHg 89%
01:00 +24°C° 0 mm 1 m/s 758 mmHg 87%
02:00 +24°C° 0 mm 1 m/s 758 mmHg 85%
03:00 +22°C° 0 mm 0 m/s 758 mmHg 82%
04:00 +22°C° 0 mm 0 m/s 758 mmHg 81%
05:00 +22°C° 0 mm 0 m/s 758 mmHg 79%
06:00 +22°C° 0 mm 0 m/s 758 mmHg 78%
07:00 +26°C° 0 mm 1 m/s 758 mmHg 70%
08:00 +28°C° 0 mm 1 m/s 758 mmHg 63%
09:00 +30°C° 0 mm 2 m/s 758 mmHg 55%
10:00 +31°C° 0 mm 3 m/s 758 mmHg 51%
11:00 +34°C° 0 mm 3 m/s 758 mmHg 46%
12:00 +35°C° 0 mm 4 m/s 757 mmHg 42%
13:00 +35°C° 0 mm 5 m/s 757 mmHg 44%
14:00 +35°C° 0 mm 5 m/s 756 mmHg 47%
15:00 +34°C° 0 mm 5 m/s 756 mmHg 49%
16:00 +33°C° 0 mm 5 m/s 756 mmHg 56%
17:00 +32°C° 0 mm 4 m/s 756 mmHg 62%
18:00 +30°C° 0 mm 3 m/s 756 mmHg 69%
19:00 +28°C° 0 mm 3 m/s 756 mmHg 77%
20:00 +27°C° 0 mm 2 m/s 757 mmHg 84%
21:00 +26°C° 0 mm 1 m/s 757 mmHg 91%
22:00 +26°C° 0 mm 1 m/s 757 mmHg 91%
23:00 +26°C° 0 mm 1 m/s 757 mmHg 90%

19 Agosto, Quarta-feira

Tempo Temperatura Precipitação Vento Pressão Humidade
00:00 +25°C° 0 mm 1 m/s 757 mmHg 90%
01:00 +25°C° 0 mm 1 m/s 757 mmHg 89%
02:00 +25°C° 0 mm 1 m/s 756 mmHg 88%
03:00 +23°C° 0 mm 0 m/s 756 mmHg 88%
04:00 +23°C° 0 mm 0 m/s 756 mmHg 85%
05:00 +23°C° 0 mm 0 m/s 756 mmHg 83%
06:00 +23°C° 0 mm 0 m/s 756 mmHg 81%
07:00 +27°C° 0 mm 1 m/s 756 mmHg 71%
08:00 +29°C° 0 mm 1 m/s 756 mmHg 61%
09:00 +31°C° 0 mm 1 m/s 756 mmHg 51%
10:00 +34°C° 0 mm 2 m/s 756 mmHg 46%
11:00 +35°C° 0 mm 4 m/s 755 mmHg 41%
12:00 +37°C° 0 mm 5 m/s 755 mmHg 36%
13:00 +36°C° 0 mm 5 m/s 755 mmHg 37%
14:00 +36°C° 0 mm 5 m/s 754 mmHg 37%
15:00 +36°C° 0 mm 5 m/s 754 mmHg 38%
16:00 +34°C° 0 mm 4 m/s 754 mmHg 43%
17:00 +33°C° 0 mm 4 m/s 754 mmHg 47%
18:00 +31°C° 0 mm 3 m/s 753 mmHg 52%
19:00 +29°C° 0 mm 2 m/s 754 mmHg 60%
20:00 +27°C° 0 mm 2 m/s 754 mmHg 69%
21:00 +26°C° 0 mm 1 m/s 755 mmHg 77%
22:00 +25°C° 0 mm 1 m/s 755 mmHg 77%
23:00 +25°C° 0 mm 1 m/s 755 mmHg 76%
Mostrar mais